• In Netherlands
  • List of Countries
  • For 7 days
  • Water Temperature
  • Satellite Maps
  • Weather Map
  • Weather Widgets
  • user-avatar
    Login

    Hourly Weather Antwerp

    Today, 21 August, Monday

    Time Temperature Precipitation Wind Pressure Humidity
    00:00 +16°C° 0 mm 1 mps 767 mmHg 74%
    01:00 +15°C° 0 mm 1 mps 767 mmHg 77%
    02:00 +15°C° 0 mm 1 mps 767 mmHg 80%
    03:00 +14°C° 0 mm 1 mps 767 mmHg 83%
    04:00 +14°C° 0 mm 1 mps 767 mmHg 83%
    05:00 +15°C° 0 mm 1 mps 767 mmHg 83%
    06:00 +15°C° 0 mm 1 mps 767 mmHg 83%
    07:00 +16°C° 0 mm 2 mps 767 mmHg 77%
    08:00 +18°C° 0 mm 2 mps 767 mmHg 71%
    09:00 +19°C° 0 mm 2 mps 767 mmHg 65%
    10:00 +20°C° 0 mm 2 mps 766 mmHg 63%
    11:00 +21°C° 0 mm 2 mps 766 mmHg 60%
    12:00 +21°C° 0 mm 2 mps 766 mmHg 58%
    13:00 +23°C° 0 mm 2 mps 766 mmHg 58%
    14:00 +23°C° 0 mm 2 mps 766 mmHg 59%
    15:00 +23°C° 0 mm 2 mps 766 mmHg 59%
    16:00 +21°C° 0 mm 2 mps 766 mmHg 63%
    17:00 +22°C° 0 mm 1 mps 765 mmHg 66%
    18:00 +21°C° 0 mm 1 mps 765 mmHg 70%
    19:00 +20°C° 0 mm 1 mps 766 mmHg 73%
    20:00 +19°C° 0 mm 1 mps 766 mmHg 75%
    21:00 +18°C° 0 mm 1 mps 766 mmHg 78%
    22:00 +18°C° 0 mm 1 mps 766 mmHg 79%
    23:00 +18°C° 0 mm 1 mps 766 mmHg 80%

    Tomorrow, 22 August, Tuesday

    Time Temperature Precipitation Wind Pressure Humidity
    00:00 +18°C° 0 mm 1 mps 766 mmHg 81%
    01:00 +16°C° 0 mm 1 mps 765 mmHg 82%
    02:00 +16°C° 0 mm 1 mps 765 mmHg 82%
    03:00 +16°C° 0 mm 1 mps 765 mmHg 83%
    04:00 +16°C° 0 mm 1 mps 765 mmHg 83%
    05:00 +16°C° 0 mm 1 mps 765 mmHg 83%
    06:00 +18°C° 0 mm 1 mps 765 mmHg 83%
    07:00 +19°C° 0 mm 1 mps 765 mmHg 77%
    08:00 +21°C° 0 mm 1 mps 765 mmHg 71%
    09:00 +22°C° 0 mm 1 mps 765 mmHg 66%
    10:00 +23°C° 0 mm 1 mps 765 mmHg 62%
    11:00 +24°C° 0 mm 1 mps 765 mmHg 59%
    12:00 +25°C° 0 mm 2 mps 764 mmHg 56%
    13:00 +26°C° 0 mm 2 mps 764 mmHg 55%
    14:00 +26°C° 0 mm 2 mps 764 mmHg 55%
    15:00 +26°C° 0 mm 2 mps 763 mmHg 54%
    16:00 +25°C° 0 mm 2 mps 763 mmHg 58%
    17:00 +24°C° 0 mm 2 mps 763 mmHg 62%
    18:00 +24°C° 0 mm 2 mps 763 mmHg 66%
    19:00 +23°C° 0 mm 2 mps 763 mmHg 69%
    20:00 +20°C° 0 mm 3 mps 763 mmHg 71%
    21:00 +19°C° 0 mm 3 mps 763 mmHg 73%
    22:00 +19°C° 0 mm 3 mps 763 mmHg 75%
    23:00 +18°C° 0 mm 3 mps 762 mmHg 76%

    Day after tomorrow, 23 August, Wednesday

    Time Temperature Precipitation Wind Pressure Humidity
    00:00 +18°C° 0 mm 3 mps 762 mmHg 77%
    01:00 +17°C° 0 mm 3 mps 762 mmHg 78%
    02:00 +17°C° 0 mm 3 mps 761 mmHg 79%
    03:00 +17°C° 0 mm 3 mps 761 mmHg 81%
    04:00 +17°C° 0 mm 3 mps 761 mmHg 80%
    05:00 +17°C° 0 mm 2 mps 761 mmHg 80%
    06:00 +18°C° 0 mm 2 mps 761 mmHg 80%
    07:00 +20°C° 0 mm 3 mps 761 mmHg 73%
    08:00 +22°C° 0 mm 3 mps 760 mmHg 66%
    09:00 +25°C° 0 mm 3 mps 760 mmHg 59%
    10:00 +26°C° 0 mm 3 mps 760 mmHg 55%
    11:00 +28°C° 0 mm 3 mps 760 mmHg 52%
    12:00 +29°C° 0 mm 3 mps 759 mmHg 48%
    13:00 +30°C° 0 mm 3 mps 759 mmHg 49%
    14:00 +30°C° 0 mm 4 mps 759 mmHg 49%
    15:00 +30°C° 0 mm 4 mps 759 mmHg 49%
    16:00 +29°C° 0.1 mm 4 mps 759 mmHg 56%
    17:00 +28°C° 0.1 mm 4 mps 759 mmHg 63%
    18:00 +26°C° 0.1 mm 4 mps 759 mmHg 70%
    19:00 +23°C° 0 mm 4 mps 759 mmHg 73%
    20:00 +21°C° 0 mm 4 mps 759 mmHg 75%
    21:00 +20°C° 0 mm 4 mps 760 mmHg 77%
    22:00 +19°C° 0 mm 4 mps 760 mmHg 80%
    23:00 +18°C° 0 mm 4 mps 760 mmHg 83%

    24 August, Thursday

    Time Temperature Precipitation Wind Pressure Humidity
    00:00 +17°C° 0 mm 4 mps 760 mmHg 85%
    01:00 +15°C° 0 mm 4 mps 760 mmHg 88%
    02:00 +16°C° 0 mm 3 mps 760 mmHg 90%
    03:00 +16°C° 0 mm 3 mps 760 mmHg 92%
    04:00 +16°C° 0 mm 3 mps 761 mmHg 91%
    05:00 +16°C° 0 mm 3 mps 761 mmHg 91%
    06:00 +16°C° 0 mm 3 mps 761 mmHg 90%
    07:00 +17°C° 0 mm 4 mps 761 mmHg 84%
    08:00 +19°C° 0 mm 4 mps 761 mmHg 78%
    09:00 +20°C° 0 mm 4 mps 761 mmHg 73%
    10:00 +21°C° 0 mm 4 mps 761 mmHg 68%
    11:00 +22°C° 0 mm 5 mps 761 mmHg 63%
    12:00 +23°C° 0 mm 5 mps 761 mmHg 59%
    13:00 +23°C° 0.1 mm 5 mps 761 mmHg 58%
    14:00 +23°C° 0.1 mm 4 mps 761 mmHg 58%
    15:00 +23°C° 0.1 mm 4 mps 761 mmHg 58%
    16:00 +22°C° 0 mm 4 mps 761 mmHg 62%
    17:00 +21°C° 0 mm 3 mps 761 mmHg 67%
    18:00 +20°C° 0 mm 3 mps 761 mmHg 71%
    19:00 +19°C° 0 mm 2 mps 761 mmHg 74%
    20:00 +18°C° 0 mm 2 mps 761 mmHg 77%
    21:00 +17°C° 0 mm 2 mps 761 mmHg 80%
    22:00 +16°C° 0 mm 2 mps 761 mmHg 81%
    23:00 +16°C° 0 mm 2 mps 761 mmHg 83%

    25 August, Friday

    Time Temperature Precipitation Wind Pressure Humidity
    00:00 +15°C° 0 mm 2 mps 762 mmHg 85%
    01:00 +15°C° 0 mm 2 mps 761 mmHg 86%
    02:00 +14°C° 0 mm 2 mps 761 mmHg 88%
    03:00 +14°C° 0 mm 2 mps 761 mmHg 89%
    04:00 +14°C° 0 mm 2 mps 761 mmHg 88%
    05:00 +15°C° 0 mm 2 mps 761 mmHg 87%
    06:00 +15°C° 0 mm 2 mps 761 mmHg 86%
    07:00 +17°C° 0 mm 2 mps 761 mmHg 79%
    08:00 +18°C° 0 mm 2 mps 761 mmHg 73%
    09:00 +20°C° 0 mm 2 mps 761 mmHg 66%
    10:00 +21°C° 0 mm 2 mps 761 mmHg 62%
    11:00 +23°C° 0 mm 2 mps 761 mmHg 57%
    12:00 +24°C° 0 mm 2 mps 761 mmHg 52%
    13:00 +25°C° 0 mm 2 mps 761 mmHg 50%
    14:00 +25°C° 0 mm 1 mps 760 mmHg 49%
    15:00 +26°C° 0 mm 1 mps 760 mmHg 47%
    16:00 +25°C° 0 mm 1 mps 760 mmHg 52%
    17:00 +24°C° 0 mm 1 mps 760 mmHg 56%
    18:00 +23°C° 0 mm 1 mps 760 mmHg 61%
    19:00 +22°C° 0 mm 1 mps 760 mmHg 63%
    20:00 +21°C° 0 mm 1 mps 760 mmHg 66%
    21:00 +19°C° 0 mm 2 mps 760 mmHg 68%
    22:00 +19°C° 0.1 mm 2 mps 760 mmHg 69%
    23:00 +19°C° 0.1 mm 2 mps 760 mmHg 71%

    26 August, Saturday

    Time Temperature Precipitation Wind Pressure Humidity
    00:00 +18°C° 0.1 mm 2 mps 759 mmHg 72%
    01:00 +19°C° 0.2 mm 1 mps 759 mmHg 74%
    02:00 +19°C° 0.2 mm 1 mps 759 mmHg 75%
    03:00 +19°C° 0.2 mm 1 mps 759 mmHg 76%
    04:00 +19°C° 0 mm 1 mps 759 mmHg 77%
    05:00 +19°C° 0 mm 1 mps 759 mmHg 78%
    06:00 +19°C° 0 mm 1 mps 759 mmHg 79%
    07:00 +20°C° 0 mm 1 mps 759 mmHg 76%
    08:00 +21°C° 0 mm 1 mps 759 mmHg 72%
    09:00 +21°C° 0 mm 2 mps 759 mmHg 69%
    10:00 +23°C° 0 mm 2 mps 759 mmHg 66%
    11:00 +24°C° 0 mm 2 mps 759 mmHg 63%
    12:00 +25°C° 0 mm 2 mps 759 mmHg 60%
    13:00 +25°C° 0.1 mm 2 mps 759 mmHg 60%
    14:00 +25°C° 0.1 mm 3 mps 759 mmHg 59%
    15:00 +25°C° 0.1 mm 3 mps 759 mmHg 59%
    16:00 +24°C° 0 mm 2 mps 759 mmHg 62%
    17:00 +23°C° 0 mm 2 mps 759 mmHg 66%
    18:00 +21°C° 0 mm 2 mps 759 mmHg 69%
    19:00 +20°C° 0 mm 2 mps 759 mmHg 72%
    20:00 +19°C° 0 mm 2 mps 759 mmHg 75%
    21:00 +18°C° 0 mm 2 mps 760 mmHg 77%
    22:00 +17°C° 0 mm 2 mps 760 mmHg 80%
    23:00 +17°C° 0 mm 3 mps 760 mmHg 83%
    Show more